SL-16 R/B (22220 NORAD) Tracking and Keplerian Element Data

This shows tracking and keplerian element data for the satellite.

Feedback or suggestion? Click here.




ElementValue
Catalog22220
NameSL-16 R/B
Epoch Orbit32734
Epoch Day202.70683038
Epoch Year2018
RAAN298.2655
Inclination71.0007
Eccentricity0.0012157
Argument of Perigee14.5264
Mean Anonmoly135.8272
Mean Motion14.1643095
Decay Rate-5.1E-07
L11 22220U 92076B 18202.70683038 -.00000051 00000-0 -17143-5 0 9999
L22 22220 71.0007 298.2655 0012157 14.5264 135.8272 14.16430950327340

Live tracking and technical data element details for SL-16 R/B (NORAD 22220). SL-16 R/B can be tracked NOW for your location showing map with azimuth and elevation plus other details from your city location.

Track the satellite on the map from your city or location and see movement details for azimuth, elevation, latitude, longitude, range, height, and movement on the map or in text.







IsCatalogInMostPopularTable: catalog: 22220, numindb: 24
Update: records affected: 1



GetName: 22220 SL-16 R/B

Hit Count: updated at: Mon, 23 Jul 2018 07:51:32 GMT